Location: Astronomy Adventures Observing Site
(35.3995°N, 106.1279°W)
Time: 07:56:27
(UTC-06:00)

Hubble Space Telescope - Pass Details

Date: 31 January 2022
Orbit: 533 x 537 km, 28.5° (Epoch: 17 May)

Event Time Altitude Azimuth Distance (km) Brightness Sun altitude
Rises 19:04:03 0° 236° (SW) 2,657 5.4 -19.0°
Reaches altitude 10° 19:06:37 10° 222° (SW) 1,770 4.1 -19.5°
Maximum altitude 19:09:54 23° 168° (SSE) 1,141 2.3 -20.2°
Enters shadow 19:10:24 23° 156° (SSE) 1,160 2.3 -20.3°
